SCP
0 0 0 -0 -0 -0 -0 0 0 0 -0 -0 -0 0 -0 -0 -0 -0 0 0 0 0 0 0 0 0 0 0 0 0 0 0 0 0 0 0 0 0 0 0 0 0 0 0
0 0 0 0 -0 -0 0 0 0 0 -0 0 0 -0 0 0 0 -0 -0 0 0 0 0 0 0 0 0 0 0 0 0 0 0 0 0 0 0 0 0 0 0 0 0 0
0 0 0 -0 -0 -0 -0 -0 0 0 0 -0 0 0 0 0 0 0 0 0 0 0 0 0 0 0 0 0 0 0 0 0 0 0 0 0 0 0 0 0 0 0 0 0
0 0 0 -0 -0 -0 -0 -0 0 0 0 -0 -0 0 0 0 0 0 0 0 0 0 0 0 0 0 0 0 0 0 0 0 0 0 0 0 0 0 0 0 0 0 0 0
0 0 0 -0 -0 -0 0 0 0 0 -0 -0 -0 0 0 0 0 0 0 0 0 0 0 0 0 0 0 0 0 0 0 0 0 0 0 0 0 0 0 0 0 0 0 0
0 0 0 -0 -0 -0 -0 -0 0 0 -0 0 -0 0 0 0 -0 0 0 0 0 0 0 0 0 0 0 0 0 0 0 0 0 0 0 0 0 0 0 0 0 0 0 0
0 0 0 -0 -0 -0 -0 -0 -0 -0 0 -0 0 0 0 0 0 0 0 0 0 0 0 0 0 0 0 0 0 0 0 0 0 0 0 0 0 0 0 0 0 0 0 0
0 0 0 -0 -0 -0 -0 -0 -0 -0 -0 0 -0 0 0 0 0 0 0 0 0 0 0 0 0 0 0 0 0 0 0 0 0 0 0 0 0 0 0 0 0 0 0 0
0 0 0 -0 -0 -0 -0 -0 -0 -0 -0 -0 -0 0 0 0 0 0 0 0 0 0 0 0 0 0 0 0 0 0 0 0 0 0 0 0 0 0 0 0 0 0 0 0
0 0 0 0 0 0 0 0 -0 -0 -0 -0 -0 -0 -0 0 0 0 0 0 0 0 0 0 0 0 0 0 0 0 0 0 0 0 0 0 0 0 0 0 0 0 0 0
0 0 0 0 0 0 0 0 -0 -0 -0 -0 -0 -0 -0 -0 0 0 0 0 0 0 0 0 0 0 0 0 0 0 0 0 0 0 0 0 0 0 0 0 0 0 0 0
0 0 0 0 0 0 0 -0 -0 -0 -0 -0 -0 -0 -0 -0 -0 -0 0 0 0 0 0 0 0 0 0 0 0 0 0 0 0 0 0 0 0 0 0 0 0 0 0 0
0 0 0 0 0 0 0 0 0 -0 -0 -0 -0 -0 -0 -0 -0 -0 -0 -0 0 0 0 0 0 0 0 0 0 0 0 0 0 0 0 0 0 0 0 0 0 0 0 0
0 -0 0 0 0 0 0 0 0 0 -0 -0 -0 -0 -0 -0 -0 -0 -0 -0 -0 -0 0 0 0 0 0 0 0 0 0 0 0 0 0 0 0 0 0 0 0 0 0 0
0 0 0 0 0 0 0 0 0 0 0 0 0 -0 -0 -0 -0 -0 -0 -0 -0 -0 -0 0 0 0 0 0 0 0 0 0 0 0 0 0 0 0 0 0 0 0 0 0
0 0 0 0 0 0 0 0 0 0 0 0 0 -0 -0 0 -0 -0 -0 -0 -0 0 0 0 0 0 0 0 0 0 0 0 0 0 0 0 0 0 0 0 0 0 0 0
0 0 0 0 0 0 0 0 0 0 0 0 0 0 0 0 0 0 0 0 0 -0 -0 -0 -0 0 0 0 0 0 0 0 0 0 0 0 0 0 0 0 0 0 0 0
0 0 0 0 0 0 0 0 0 0 0 0 0 0 0 0 0 -0 0 0 0 0 -0 -0 0 0 0 0 0 0 0 0 0 0 0 0 0 0 0 0 0 0 0 0
0 0 0 0 0 0 0 0 0 0 0 0 0 0 0 0 0 0 0 0 0 0 0 0 0 0 0 0 0 0 0 0 0 0 0 0 0 0 0 0 0 0 0 0
0 0 0 0 0 0 0 0 0 0 0 0 0 0 0 0 0 0 -0 -0 -0 -0 0 0 0 0 0 0 0 0 0 0 0 0 0 0 0 0 0 0 0 0 0 0
-0 0 0 0 0 0 0 0 0 0 0 0 0 0 0 0 0 -0 -0 -0 0 0 0 0 0 0 0 0 0 0 0 0 0 0 0 0 0 0 0 0 0 0 0 0
-0 0 0 0 0 0 0 0 0 0 0 0 0 0 0 0 0 0 -0 0 0 0 0 0 0 0 0 0 0 0 0 0 0 0 0 0 0 0 0 0 0 0 0 0
-0 -0 0 0 0 0 0 0 0 0 0 0 0 0 0 0 0 0 0 0 0 0 0 0 0 0 0 0 0 0 0 0 0 0 0 0 0 0 0 0 0 0 0 0
-0 -0 0 0 0 0 0 0 0 0 0 0 0 0 0 0 0 0 0 0 0 0 0 0 0 0 0 0 0 0 0 0 0 0 0 0 0 0 0 0 0 0 0 0
-0 -0 0 0 0 0 0 0 0 0 0 0 0 0 0 -0 -0 0 0 0 0 0 0 0 0 0 0 0 0 0 0 0 0 0 0 0 0 0 0 0 0 0 0 0
-0 -0 0 0 0 0 0 0 0 0 0 0 0 0 0 0 0 0 0 0 0 0 0 0 0 0 0 0 0 0 0 0 0 0 0 0 0 0 0 0 0 0 0 0
-0 -0 0 0 0 0 0 0 0 0 0 0 0 0 0 0 0 0 0 0 0 0 0 0 0 0 0 0 0 0 0 0 0 0 0 0 0 0 0 0 0 0 0 0
Wind_Speed_500mb
30 38 42 49 52 49 40 41 26 44 57 49 45 47 2 24 41 44 42 44 40 30 21 22 44 65 81 97 107 109 106 109 101 96 92 87 88 92 91 87 84 83 81 78
32 32 24 43 48 32 30 30 19 30 43 55 71 39 21 30 34 48 53 43 38 29 20 13 20 47 66 83 95 99 93 96 95 92 88 90 86 88 91 89 86 85 83 80
15 30 17 18 12 39 22 30 26 28 43 48 25 26 27 31 42 48 56 45 39 27 14 10 14 31 51 68 79 87 86 85 88 90 87 87 86 85 92 91 87 87 84 82
13 11 7 17 34 27 27 14 25 32 41 52 45 30 50 63 57 56 53 44 38 27 13 14 13 16 32 54 67 76 81 82 84 84 82 85 85 86 91 91 90 89 86 82
5 8 21 21 13 20 36 30 21 26 40 62 80 24 60 70 64 61 64 46 35 25 16 14 22 18 22 43 57 69 75 79 78 74 80 83 84 86 91 93 92 90 85 83
5 8 15 14 30 49 35 8 20 14 24 34 64 27 20 65 69 74 69 59 40 31 16 6 4 18 25 32 48 58 68 70 68 70 75 79 81 84 90 93 93 90 86 82
20 18 15 20 26 32 8 11 31 25 36 19 18 21 48 50 64 68 72 69 53 38 26 17 5 6 18 29 38 42 49 53 56 63 70 71 78 83 91 94 93 89 85 82
4 3 17 34 14 4 13 43 35 29 35 32 24 28 47 59 62 63 70 73 67 60 47 30 17 8 12 20 28 33 39 45 50 56 63 69 76 84 89 93 92 89 85 81
15 12 19 40 32 60 59 35 33 23 29 34 32 36 35 42 55 62 61 60 67 64 63 54 32 17 8 17 22 28 33 40 44 49 57 65 74 83 88 91 91 88 86 82
30 38 47 69 72 62 59 61 49 33 28 30 30 29 36 35 35 41 55 56 59 68 66 62 56 37 16 7 19 25 26 34 39 46 55 62 70 77 85 89 90 89 86 82
29 44 53 58 66 68 56 40 27 25 23 24 29 32 34 36 35 31 29 45 51 58 61 58 56 50 39 19 8 18 26 29 31 40 51 56 62 70 77 81 82 83 82 81
17 53 32 54 52 42 39 41 33 24 18 18 28 33 33 32 31 31 29 26 35 43 46 51 53 53 48 40 20 9 16 25 34 40 46 52 57 64 71 75 78 76 74 71
62 86 65 74 70 64 53 43 38 29 20 21 26 33 31 27 30 30 29 25 23 20 33 41 48 46 45 44 37 23 9 16 21 31 39 46 52 59 68 73 75 74 72 68
71 73 58 77 60 62 49 50 49 36 27 24 23 29 33 26 24 24 28 29 26 23 22 22 32 38 37 38 37 32 25 10 17 24 24 31 39 47 55 63 67 66 64 61
86 79 81 81 62 66 62 51 53 52 46 34 27 26 29 29 21 20 23 26 28 28 24 22 17 17 29 25 27 28 25 23 14 14 26 27 27 29 34 42 51 55 62 63
70 62 68 79 80 76 69 56 58 60 47 43 37 30 25 26 24 21 23 26 28 30 29 23 20 16 14 20 19 20 19 19 17 16 9 26 34 34 36 38 40 45 50 58
56 58 66 71 78 81 77 75 72 64 56 50 41 35 30 27 27 26 26 24 28 29 27 30 22 17 13 13 13 12 12 12 11 9 10 10 12 29 39 42 44 45 47 50
71 80 72 75 79 82 80 75 70 62 58 52 45 40 34 32 32 33 34 32 22 21 28 26 31 22 17 14 10 9 9 8 4 2 1 5 8 10 17 29 40 46 50 50
48 57 76 76 74 68 65 62 61 55 55 50 42 40 38 37 39 39 42 41 39 24 23 25 25 30 26 26 21 11 12 14 14 10 8 7 9 10 11 13 19 29 40 49
48 33 44 57 67 65 60 57 50 41 41 43 42 41 39 39 40 43 46 44 36 33 29 31 30 31 32 32 28 25 19 17 22 23 20 16 15 15 16 16 15 18 25 33
52 39 26 22 28 36 36 34 33 34 36 37 39 40 39 41 43 47 45 40 30 37 38 35 36 35 33 35 32 31 28 24 22 25 27 25 24 25 22 22 23 22 21 24
50 41 30 21 17 19 22 24 27 30 34 36 39 43 46 43 44 44 38 32 30 38 39 34 35 36 37 37 36 34 31 29 26 22 25 28 31 32 31 29 28 28 29 28
46 38 30 25 22 21 22 25 28 32 35 38 39 41 42 40 40 36 24 32 35 37 36 34 36 35 36 36 37 37 37 35 29 25 25 24 26 30 33 34 35 35 33 32
42 35 30 25 21 18 19 21 24 26 27 27 30 34 35 37 34 34 30 32 34 38 41 38 37 38 40 36 35 41 43 40 39 32 29 31 31 30 33 35 37 38 39 39
41 38 32 27 23 20 19 20 21 24 27 27 27 30 32 38 36 31 34 33 33 40 41 38 40 41 42 41 40 43 44 46 45 43 36 33 34 37 38 37 39 40 40 42
41 37 34 28 28 25 22 23 23 23 28 29 28 31 32 38 41 43 42 39 39 43 45 42 44 45 45 45 46 48 47 47 47 49 50 42 38 38 36 39 42 43 44 44
35 36 33 27 27 29 29 29 30 24 26 30 32 30 33 36 40 43 47 48 44 46 47 44 48 47 47 47 49 50 51 50 49 47 50 51 48 43 40 37 39 42 42 42
Wind_Direction_500mb
258 268 280 278 284 290 293 276 271 294 297 313 321 298 42 316 345 340 8 350 336 323 313 256 224 216 209 206 207 211 206 211 211 214 216 215 214 210 207 207 205 205 203 202
287 278 266 289 287 281 292 317 296 316 329 325 317 285 25 18 356 353 354 1 343 326 311 276 228 215 209 205 206 207 198 205 207 212 212 212 213 209 206 206 205 203 203 202
269 296 310 302 224 338 323 318 334 340 333 324 317 43 24 23 14 357 349 354 348 337 292 277 229 211 212 208 206 206 200 202 203 212 213 212 212 209 206 205 203 202 203 202
264 355 314 240 327 309 308 321 349 337 333 336 315 63 39 27 26 3 350 3 1 354 330 237 212 203 211 209 206 203 201 199 204 206 214 212 210 207 205 204 203 201 201 202
223 210 284 294 292 334 317 309 344 345 339 343 343 325 31 16 19 11 9 9 11 7 354 233 221 210 195 207 205 203 204 205 209 214 212 209 207 206 204 203 202 202 202 201
81 222 254 282 303 299 296 239 356 322 350 348 343 8 10 10 11 19 19 22 10 21 17 56 209 209 217 210 198 202 202 206 211 212 213 211 208 204 203 204 203 202 201 202
241 255 276 266 275 314 27 303 319 314 303 0 351 354 353 12 12 12 18 23 28 31 31 37 49 178 201 211 209 205 202 205 211 214 211 211 207 206 203 203 203 203 202 202
69 133 285 257 283 218 282 308 307 308 321 310 320 329 3 10 14 9 14 15 28 35 40 41 51 95 171 196 197 206 207 206 209 212 208 207 207 205 204 203 202 202 202 202
204 229 252 266 262 288 307 285 306 300 314 319 336 345 347 3 9 4 7 6 17 28 39 41 42 60 109 174 183 193 199 207 207 210 208 206 206 205 202 202 203 202 202 201
266 261 255 264 273 279 283 282 285 285 295 310 326 349 349 358 358 360 355 359 7 16 33 33 38 43 56 127 179 189 197 200 205 206 205 206 206 207 204 202 202 203 202 201
248 257 267 269 269 279 285 300 258 258 278 306 316 331 343 351 344 348 360 353 358 10 19 29 32 38 44 60 114 179 191 198 198 198 200 203 206 206 206 206 206 204 205 205
239 257 245 266 272 270 280 288 243 251 259 296 311 325 330 337 345 344 352 5 1 357 4 16 27 31 39 46 57 121 168 187 194 196 197 200 202 202 205 209 208 209 212 212
250 257 261 265 270 270 267 276 254 245 250 287 292 310 317 329 341 346 346 355 6 18 359 358 15 23 33 39 46 56 111 166 185 193 198 201 203 205 205 207 210 210 211 214
253 261 260 257 252 265 265 268 257 245 259 266 273 292 308 311 337 348 348 352 1 2 5 2 350 7 20 28 35 47 60 100 177 182 189 197 202 204 209 208 208 208 209 209
256 250 247 258 253 264 265 254 251 251 266 259 265 278 294 292 312 332 353 349 344 348 348 352 6 342 356 16 16 32 47 61 82 177 193 193 194 196 201 204 208 205 204 203
260 255 249 247 253 256 255 247 246 256 251 262 271 274 278 276 287 307 332 343 345 346 341 339 340 349 343 346 4 6 32 42 55 77 141 196 198 200 200 202 206 208 207 207
252 243 240 240 248 248 245 251 252 254 261 264 271 273 275 272 275 287 307 327 332 331 328 324 321 325 326 320 324 339 2 19 32 43 86 108 172 200 203 208 211 212 215 215
277 262 253 248 250 249 249 247 252 250 252 260 262 265 270 274 277 284 288 299 310 310 313 311 306 305 296 293 291 295 298 310 338 347 28 140 146 160 186 201 208 212 213 214
317 278 266 259 252 254 259 256 251 245 246 250 254 257 265 275 276 280 286 297 307 301 282 288 287 289 284 278 280 271 256 249 255 252 237 216 209 195 185 190 198 204 212 213
338 312 276 262 256 252 253 254 256 251 244 244 250 256 259 268 272 276 285 291 301 293 277 271 278 273 275 276 271 272 263 251 241 241 238 230 229 225 216 211 212 202 198 205
340 344 332 301 274 261 256 254 252 248 246 246 251 255 260 267 272 276 279 286 289 280 273 267 260 261 262 269 268 262 265 262 248 239 237 233 233 240 231 226 222 218 219 212
340 340 336 320 290 272 258 249 249 251 251 250 253 258 263 268 271 274 282 287 274 268 271 268 262 254 253 258 264 266 258 260 264 259 242 233 232 232 234 232 233 232 229 227
332 332 333 326 311 292 275 260 251 250 252 257 259 260 262 264 267 272 270 274 270 271 275 267 260 258 256 251 255 257 260 257 258 259 260 251 244 243 239 234 233 234 234 234
321 317 320 318 314 304 288 276 271 262 257 256 258 263 266 266 269 276 273 263 268 273 274 271 265 259 255 251 252 255 253 255 260 267 268 260 253 245 246 247 246 241 237 236
313 310 306 309 306 298 290 277 271 271 273 272 271 273 274 275 276 270 271 271 266 266 268 270 268 262 256 251 247 245 246 245 248 253 256 260 259 253 248 246 248 247 244 240
305 305 301 301 299 294 289 284 279 277 276 273 275 278 277 279 281 280 279 277 270 267 267 266 266 264 259 257 253 249 246 245 243 246 248 245 248 251 251 247 247 247 247 245
300 301 295 293 294 294 293 293 290 285 285 286 282 280 277 275 277 279 280 281 277 272 268 266 265 264 262 258 255 255 254 251 249 250 252 252 251 254 257 256 253 249 248 247
Wind_Speed_850mb
30 38 42 49 52 49 40 41 26 44 57 49 45 47 2 24 41 44 42 44 40 30 21 22 44 65 81 97 107 109 106 109 101 96 92 87 88 92 91 87 84 83 81 78
32 32 24 43 48 32 30 30 19 30 43 55 71 39 21 30 34 48 53 43 38 29 20 13 20 47 66 83 95 99 93 96 95 92 88 90 86 88 91 89 86 85 83 80
15 30 17 18 12 39 22 30 26 28 43 48 25 26 27 31 42 48 56 45 39 27 14 10 14 31 51 68 79 87 86 85 88 90 87 87 86 85 92 91 87 87 84 82
13 11 7 17 34 27 27 14 25 32 41 52 45 30 50 63 57 56 53 44 38 27 13 14 13 16 32 54 67 76 81 82 84 84 82 85 85 86 91 91 90 89 86 82
5 8 21 21 13 20 36 30 21 26 40 62 80 24 60 70 64 61 64 46 35 25 16 14 22 18 22 43 57 69 75 79 78 74 80 83 84 86 91 93 92 90 85 83
5 8 15 14 30 49 35 8 20 14 24 34 64 27 20 65 69 74 69 59 40 31 16 6 4 18 25 32 48 58 68 70 68 70 75 79 81 84 90 93 93 90 86 82
20 18 15 20 26 32 8 11 31 25 36 19 18 21 48 50 64 68 72 69 53 38 26 17 5 6 18 29 38 42 49 53 56 63 70 71 78 83 91 94 93 89 85 82
4 3 17 34 14 4 13 43 35 29 35 32 24 28 47 59 62 63 70 73 67 60 47 30 17 8 12 20 28 33 39 45 50 56 63 69 76 84 89 93 92 89 85 81
15 12 19 40 32 60 59 35 33 23 29 34 32 36 35 42 55 62 61 60 67 64 63 54 32 17 8 17 22 28 33 40 44 49 57 65 74 83 88 91 91 88 86 82
30 38 47 69 72 62 59 61 49 33 28 30 30 29 36 35 35 41 55 56 59 68 66 62 56 37 16 7 19 25 26 34 39 46 55 62 70 77 85 89 90 89 86 82
29 44 53 58 66 68 56 40 27 25 23 24 29 32 34 36 35 31 29 45 51 58 61 58 56 50 39 19 8 18 26 29 31 40 51 56 62 70 77 81 82 83 82 81
17 53 32 54 52 42 39 41 33 24 18 18 28 33 33 32 31 31 29 26 35 43 46 51 53 53 48 40 20 9 16 25 34 40 46 52 57 64 71 75 78 76 74 71
62 86 65 74 70 64 53 43 38 29 20 21 26 33 31 27 30 30 29 25 23 20 33 41 48 46 45 44 37 23 9 16 21 31 39 46 52 59 68 73 75 74 72 68
71 73 58 77 60 62 49 50 49 36 27 24 23 29 33 26 24 24 28 29 26 23 22 22 32 38 37 38 37 32 25 10 17 24 24 31 39 47 55 63 67 66 64 61
86 79 81 81 62 66 62 51 53 52 46 34 27 26 29 29 21 20 23 26 28 28 24 22 17 17 29 25 27 28 25 23 14 14 26 27 27 29 34 42 51 55 62 63
70 62 68 79 80 76 69 56 58 60 47 43 37 30 25 26 24 21 23 26 28 30 29 23 20 16 14 20 19 20 19 19 17 16 9 26 34 34 36 38 40 45 50 58
56 58 66 71 78 81 77 75 72 64 56 50 41 35 30 27 27 26 26 24 28 29 27 30 22 17 13 13 13 12 12 12 11 9 10 10 12 29 39 42 44 45 47 50
71 80 72 75 79 82 80 75 70 62 58 52 45 40 34 32 32 33 34 32 22 21 28 26 31 22 17 14 10 9 9 8 4 2 1 5 8 10 17 29 40 46 50 50
48 57 76 76 74 68 65 62 61 55 55 50 42 40 38 37 39 39 42 41 39 24 23 25 25 30 26 26 21 11 12 14 14 10 8 7 9 10 11 13 19 29 40 49
48 33 44 57 67 65 60 57 50 41 41 43 42 41 39 39 40 43 46 44 36 33 29 31 30 31 32 32 28 25 19 17 22 23 20 16 15 15 16 16 15 18 25 33
52 39 26 22 28 36 36 34 33 34 36 37 39 40 39 41 43 47 45 40 30 37 38 35 36 35 33 35 32 31 28 24 22 25 27 25 24 25 22 22 23 22 21 24
50 41 30 21 17 19 22 24 27 30 34 36 39 43 46 43 44 44 38 32 30 38 39 34 35 36 37 37 36 34 31 29 26 22 25 28 31 32 31 29 28 28 29 28
46 38 30 25 22 21 22 25 28 32 35 38 39 41 42 40 40 36 24 32 35 37 36 34 36 35 36 36 37 37 37 35 29 25 25 24 26 30 33 34 35 35 33 32
42 35 30 25 21 18 19 21 24 26 27 27 30 34 35 37 34 34 30 32 34 38 41 38 37 38 40 36 35 41 43 40 39 32 29 31 31 30 33 35 37 38 39 39
41 38 32 27 23 20 19 20 21 24 27 27 27 30 32 38 36 31 34 33 33 40 41 38 40 41 42 41 40 43 44 46 45 43 36 33 34 37 38 37 39 40 40 42
41 37 34 28 28 25 22 23 23 23 28 29 28 31 32 38 41 43 42 39 39 43 45 42 44 45 45 45 46 48 47 47 47 49 50 42 38 38 36 39 42 43 44 44
35 36 33 27 27 29 29 29 30 24 26 30 32 30 33 36 40 43 47 48 44 46 47 44 48 47 47 47 49 50 51 50 49 47 50 51 48 43 40 37 39 42 42 42
Wind_Direction_850mb
258 268 280 278 284 290 293 276 271 294 297 313 321 298 42 316 345 340 8 350 336 323 313 256 224 216 209 206 207 211 206 211 211 214 216 215 214 210 207 207 205 205 203 202
287 278 266 289 287 281 292 317 296 316 329 325 317 285 25 18 356 353 354 1 343 326 311 276 228 215 209 205 206 207 198 205 207 212 212 212 213 209 206 206 205 203 203 202
269 296 310 302 224 338 323 318 334 340 333 324 317 43 24 23 14 357 349 354 348 337 292 277 229 211 212 208 206 206 200 202 203 212 213 212 212 209 206 205 203 202 203 202
264 355 314 240 327 309 308 321 349 337 333 336 315 63 39 27 26 3 350 3 1 354 330 237 212 203 211 209 206 203 201 199 204 206 214 212 210 207 205 204 203 201 201 202
223 210 284 294 292 334 317 309 344 345 339 343 343 325 31 16 19 11 9 9 11 7 354 233 221 210 195 207 205 203 204 205 209 214 212 209 207 206 204 203 202 202 202 201
81 222 254 282 303 299 296 239 356 322 350 348 343 8 10 10 11 19 19 22 10 21 17 56 209 209 217 210 198 202 202 206 211 212 213 211 208 204 203 204 203 202 201 202
241 255 276 266 275 314 27 303 319 314 303 0 351 354 353 12 12 12 18 23 28 31 31 37 49 178 201 211 209 205 202 205 211 214 211 211 207 206 203 203 203 203 202 202
69 133 285 257 283 218 282 308 307 308 321 310 320 329 3 10 14 9 14 15 28 35 40 41 51 95 171 196 197 206 207 206 209 212 208 207 207 205 204 203 202 202 202 202
204 229 252 266 262 288 307 285 306 300 314 319 336 345 347 3 9 4 7 6 17 28 39 41 42 60 109 174 183 193 199 207 207 210 208 206 206 205 202 202 203 202 202 201
266 261 255 264 273 279 283 282 285 285 295 310 326 349 349 358 358 360 355 359 7 16 33 33 38 43 56 127 179 189 197 200 205 206 205 206 206 207 204 202 202 203 202 201
248 257 267 269 269 279 285 300 258 258 278 306 316 331 343 351 344 348 360 353 358 10 19 29 32 38 44 60 114 179 191 198 198 198 200 203 206 206 206 206 206 204 205 205
239 257 245 266 272 270 280 288 243 251 259 296 311 325 330 337 345 344 352 5 1 357 4 16 27 31 39 46 57 121 168 187 194 196 197 200 202 202 205 209 208 209 212 212
250 257 261 265 270 270 267 276 254 245 250 287 292 310 317 329 341 346 346 355 6 18 359 358 15 23 33 39 46 56 111 166 185 193 198 201 203 205 205 207 210 210 211 214
253 261 260 257 252 265 265 268 257 245 259 266 273 292 308 311 337 348 348 352 1 2 5 2 350 7 20 28 35 47 60 100 177 182 189 197 202 204 209 208 208 208 209 209
256 250 247 258 253 264 265 254 251 251 266 259 265 278 294 292 312 332 353 349 344 348 348 352 6 342 356 16 16 32 47 61 82 177 193 193 194 196 201 204 208 205 204 203
260 255 249 247 253 256 255 247 246 256 251 262 271 274 278 276 287 307 332 343 345 346 341 339 340 349 343 346 4 6 32 42 55 77 141 196 198 200 200 202 206 208 207 207
252 243 240 240 248 248 245 251 252 254 261 264 271 273 275 272 275 287 307 327 332 331 328 324 321 325 326 320 324 339 2 19 32 43 86 108 172 200 203 208 211 212 215 215
277 262 253 248 250 249 249 247 252 250 252 260 262 265 270 274 277 284 288 299 310 310 313 311 306 305 296 293 291 295 298 310 338 347 28 140 146 160 186 201 208 212 213 214
317 278 266 259 252 254 259 256 251 245 246 250 254 257 265 275 276 280 286 297 307 301 282 288 287 289 284 278 280 271 256 249 255 252 237 216 209 195 185 190 198 204 212 213
338 312 276 262 256 252 253 254 256 251 244 244 250 256 259 268 272 276 285 291 301 293 277 271 278 273 275 276 271 272 263 251 241 241 238 230 229 225 216 211 212 202 198 205
340 344 332 301 274 261 256 254 252 248 246 246 251 255 260 267 272 276 279 286 289 280 273 267 260 261 262 269 268 262 265 262 248 239 237 233 233 240 231 226 222 218 219 212
340 340 336 320 290 272 258 249 249 251 251 250 253 258 263 268 271 274 282 287 274 268 271 268 262 254 253 258 264 266 258 260 264 259 242 233 232 232 234 232 233 232 229 227
332 332 333 326 311 292 275 260 251 250 252 257 259 260 262 264 267 272 270 274 270 271 275 267 260 258 256 251 255 257 260 257 258 259 260 251 244 243 239 234 233 234 234 234
321 317 320 318 314 304 288 276 271 262 257 256 258 263 266 266 269 276 273 263 268 273 274 271 265 259 255 251 252 255 253 255 260 267 268 260 253 245 246 247 246 241 237 236
313 310 306 309 306 298 290 277 271 271 273 272 271 273 274 275 276 270 271 271 266 266 268 270 268 262 256 251 247 245 246 245 248 253 256 260 259 253 248 246 248 247 244 240
305 305 301 301 299 294 289 284 279 277 276 273 275 278 277 279 281 280 279 277 270 267 267 266 266 264 259 257 253 249 246 245 243 246 248 245 248 251 251 247 247 247 247 245
300 301 295 293 294 294 293 293 290 285 285 286 282 280 277 275 277 279 280 281 277 272 268 266 265 264 262 258 255 255 254 251 249 250 252 252 251 254 257 256 253 249 248 247